Wind_Speed
5 5 5 5 5 4 4 4 4 4 4 3 3 3 3 3 3 3 3 3 3 3 3 3 2 2 2 2 2 2 2 2 3 4 5 6 5 5 5 6 7 7 7
4 5 4 4 4 4 3 3 3 3 3 3 3 2 2 2 2 2 2 2 2 2 2 3 3 2 2 2 2 2 2 2 3 4 5 6 6 6 6 7 7 7 7
4 4 4 4 3 3 3 3 2 2 2 2 2 2 1 2 2 2 2 2 2 2 2 3 3 3 3 2 2 2 2 2 3 3 4 5 6 6 6 7 8 8 7
4 4 4 3 3 3 2 2 2 1 1 1 2 1 1 1 1 1 1 1 1 2 3 3 3 3 3 3 3 2 2 3 3 3 3 4 6 7 7 8 9 9 9
5 4 4 4 3 3 2 2 2 1 1 1 1 1 0 0 0 0 1 2 2 2 3 4 4 4 4 4 3 3 4 4 4 4 4 4 5 7 8 8 9 10 10
5 4 4 4 4 3 3 3 2 2 2 1 1 1 1 1 1 1 2 3 3 4 4 4 5 5 5 4 4 4 5 5 5 5 5 5 5 6 7 8 9 10 11
5 5 5 5 5 5 4 4 3 2 2 1 2 2 2 2 2 3 3 4 4 5 5 6 5 5 5 5 5 5 6 6 6 6 6 6 5 7 7 8 9 10 10
5 5 6 6 6 6 6 5 4 3 2 2 2 3 3 3 3 4 5 4 5 5 6 7 6 6 6 6 6 6 6 6 6 6 6 6 7 7 7 7 8 9 10
6 6 6 7 7 7 6 5 3 4 3 2 3 3 3 4 4 4 5 4 5 6 6 7 6 6 7 7 6 7 6 6 6 6 6 7 7 7 6 6 7 8 8
6 6 6 7 7 7 6 5 4 4 4 4 4 4 4 4 4 4 4 4 4 5 6 7 7 7 7 7 7 7 7 7 7 7 7 7 7 7 7 6 7 7 8
7 7 6 7 7 7 6 5 5 5 5 5 5 5 5 6 6 6 6 5 5 6 7 8 8 8 8 8 7 7 7 8 8 8 7 7 8 7 7 7 7 7 8
7 7 7 7 8 7 7 6 6 5 5 5 6 6 6 6 6 6 7 6 6 6 7 8 8 9 9 9 8 8 8 8 8 8 7 8 8 8 7 8 7 8 8
8 8 7 8 8 8 8 8 6 5 5 5 6 7 6 6 6 6 7 7 6 7 7 8 9 9 10 9 9 9 9 9 9 9 7 7 7 7 7 7 7 7 8
9 8 8 8 8 9 9 8 8 7 7 6 7 7 7 7 7 7 7 7 8 8 8 9 10 9 10 10 10 10 10 10 11 9 8 7 7 7 7 7 6 7 7
9 9 8 8 9 9 10 10 9 9 8 8 7 8 8 8 8 8 8 8 8 9 9 10 10 10 10 10 11 11 11 10 10 10 9 8 8 8 8 9 8 8 7
9 9 9 9 9 10 10 10 10 10 9 8 9 9 9 9 9 9 10 10 9 10 10 11 11 11 11 11 12 12 12 12 11 10 10 10 10 9 9 10 10 10 10
10 10 10 10 10 11 11 10 11 11 11 11 11 10 10 10 10 11 11 11 11 11 11 12 12 12 12 12 12 13 12 12 12 12 12 12 12 12 11 11 12 12 11
11 11 10 11 11 12 12 11 12 12 11 11 12 11 11 11 11 11 12 12 12 12 12 12 12 12 12 12 12 12 13 13 13 13 13 13 13 13 13 13 14 13 12
12 11 11 11 12 12 13 12 11 11 11 11 11 12 12 12 12 12 12 13 13 13 13 14 14 13 13 13 13 14 14 15 14 15 14 14 14 14 14 13 14 14 14
14 13 12 12 12 13 13 12 12 12 13 13 13 12 13 13 13 13 13 13 14 14 14 15 15 15 15 14 14 15 15 15 16 16 15 16 16 16 15 15 14 14 15
15 14 13 13 14 14 14 13 13 13 13 14 14 13 13 14 14 14 14 15 15 15 14 15 15 16 15 15 16 16 15 16 17 17 17 17 17 17 17 16 16 16 16
16 15 15 15 15 15 15 14 14 14 14 15 15 15 15 15 15 15 14 14 15 15 16 15 16 16 16 16 16 16 17 17 17 18 18 18 18 19 19 19 18 18 18
17 16 16 16 15 16 16 16 16 16 16 16 15 16 16 16 16 15 15 15 15 16 16 16 16 16 17 17 17 17 18 18 19 19 19 19 19 19 19 19 18 19 19
18 18 17 17 17 17 17 18 18 17 17 16 15 16 16 17 16 16 16 16 16 16 16 17 17 17 17 17 18 18 18 18 19 19 19 19 20 20 20 20 19 20 21
18 19 18 18 18 18 18 19 18 18 17 17 16 16 17 17 17 16 15 16 16 16 17 17 17 17 18 18 19 19 19 19 18 19 19 19 20 21 20 20 20 21 22
19 19 19 18 18 18 18 19 19 19 18 18 17 18 17 18 18 17 16 17 17 17 18 18 18 18 18 18 18 19 19 20 19 19 19 19 20 21 21 21 22 22 23
Wind_Direction
46 47 44 46 48 50 51 50 53 57 63 79 93 94 100 105 111 110 110 121 129 139 152 170 179 171 168 201 217 208 175 192 195 204 214 215 203 197 198 199 209 205 199
44 40 34 39 40 40 39 36 41 52 55 64 78 90 93 93 108 123 127 138 151 156 165 178 176 177 188 195 219 195 191 206 206 197 204 208 205 203 204 210 215 210 201
38 28 25 31 31 28 27 27 28 46 54 60 70 84 96 89 97 121 134 154 166 168 178 189 199 201 208 211 210 194 191 210 209 197 192 198 203 210 213 215 213 207 203
22 17 13 16 17 8 6 14 5 26 44 56 58 62 83 81 77 128 144 171 183 187 194 201 209 214 214 220 215 210 212 215 209 213 198 195 207 212 210 215 216 211 208
8 10 9 2 358 348 349 358 335 322 314 345 355 11 62 149 147 167 204 212 219 223 224 222 225 221 220 223 219 218 220 226 224 227 227 226 222 220 220 223 219 215 212
359 2 10 1 350 339 336 336 329 305 297 298 314 310 297 269 262 262 253 246 241 239 236 236 239 237 230 225 224 221 220 225 229 233 231 231 230 229 224 225 221 216 214
358 355 353 349 340 334 327 326 321 301 294 293 294 301 296 288 283 278 273 266 253 243 242 243 244 242 236 228 222 217 228 236 239 236 229 229 231 227 220 225 225 224 218
345 341 338 338 336 333 332 318 304 285 281 297 297 299 304 299 290 282 277 272 254 241 239 240 244 239 231 224 223 227 235 241 247 246 242 238 241 236 228 233 231 224 220
324 330 330 329 326 325 326 317 306 286 279 286 288 292 296 297 293 288 280 279 261 249 241 240 242 241 234 227 229 225 233 239 245 246 248 247 246 238 237 235 227 228 223
315 319 325 329 329 327 324 318 309 300 290 288 284 286 288 290 289 286 281 289 274 250 244 241 242 240 235 235 232 230 239 239 241 247 254 243 242 240 240 238 225 226 216
308 311 315 320 324 322 317 315 311 304 297 292 289 286 281 279 279 278 275 272 268 259 248 243 240 237 237 236 236 235 238 239 243 247 251 244 240 239 240 234 225 221 216
302 304 306 313 318 313 306 307 306 302 299 293 287 284 281 280 279 275 274 271 266 262 252 247 245 240 236 236 232 236 239 241 246 247 249 245 238 235 237 234 222 222 223
292 297 302 308 312 307 299 300 300 294 295 289 284 284 283 276 273 272 270 265 264 263 255 253 251 248 243 241 241 242 242 242 246 244 246 244 243 236 235 234 220 222 227
285 290 296 303 305 303 297 296 292 295 296 292 289 286 283 276 273 266 264 263 260 257 255 256 251 246 243 242 244 246 243 249 247 244 245 245 243 239 237 238 235 231 232
279 282 289 296 300 302 297 291 288 287 291 291 287 284 282 279 273 265 267 262 259 253 253 253 254 248 245 245 246 250 251 253 253 251 250 246 244 239 240 236 237 238 236
275 279 286 294 299 301 298 293 295 293 287 285 287 283 281 279 274 268 266 266 261 257 255 253 253 251 248 249 250 252 252 251 254 253 254 252 249 244 241 239 241 244 244
275 279 284 292 296 298 297 295 297 293 289 282 280 280 278 277 275 269 267 266 264 261 258 256 254 252 250 252 253 253 252 251 252 254 255 252 251 248 245 245 246 246 251
272 276 284 289 292 295 294 291 293 294 291 282 276 274 277 279 278 273 269 266 265 263 259 256 254 252 253 254 253 253 253 251 252 253 253 253 253 251 247 246 247 246 248
269 273 281 287 292 294 294 290 292 292 290 285 282 275 275 277 277 275 272 268 266 265 260 255 255 254 255 256 254 254 254 253 253 254 254 251 252 251 249 248 250 250 249
269 274 283 286 289 291 291 291 291 290 290 287 281 279 276 276 276 274 272 269 267 267 262 258 256 256 256 257 255 256 256 257 256 255 252 250 250 251 250 252 255 256 254
270 272 278 284 289 290 291 290 289 288 291 292 286 281 279 276 276 276 273 270 268 266 264 258 256 257 258 258 256 257 257 257 257 254 251 250 249 250 252 254 256 258 258
271 272 275 279 284 289 291 288 288 288 289 290 288 283 279 277 275 275 274 272 268 266 265 262 259 259 260 260 258 257 258 258 256 254 252 252 251 252 253 254 256 257 257
270 271 272 276 281 285 286 285 287 288 288 287 287 285 279 276 273 273 272 271 269 267 267 265 263 261 262 262 260 257 257 257 257 254 253 254 256 257 257 255 256 257 258
265 266 270 273 277 282 284 286 288 288 288 285 287 287 280 275 272 272 271 270 269 268 267 266 263 261 263 265 263 260 257 259 260 256 254 255 256 256 257 258 259 260 260
263 266 271 273 276 280 283 286 286 287 289 288 287 285 280 274 271 272 270 269 270 269 269 268 264 262 263 264 263 261 260 259 261 259 256 257 257 256 258 261 261 261 261
262 266 270 272 276 280 283 285 287 287 286 285 289 287 284 279 274 273 274 272 271 269 269 267 263 262 262 264 264 262 259 257 256 257 257 262 262 260 261 261 262 261 262
Height
5892 5890 5890 5889 5888 5887 5887 5886 5885 5885 5884 5883 5883 5883 5882 5882 5882 5881 5881 5881 5881 5881 5882 5882 5882 5882 5883 5883 5883 5883 5883 5883 5883 5883 5883 5883 5884 5885 5885 5886 5886 5887 5888
5892 5891 5890 5889 5888 5887 5887 5886 5885 5884 5884 5883 5883 5882 5882 5882 5882 5881 5881 5881 5881 5881 5881 5882 5882 5882 5882 5883 5882 5882 5883 5883 5883 5883 5882 5882 5883 5884 5885 5885 5886 5887 5888
5891 5890 5889 5889 5888 5887 5886 5885 5885 5884 5884 5883 5883 5882 5882 5882 5881 5881 5881 5881 5881 5881 5881 5881 5881 5882 5882 5883 5883 5882 5882 5882 5883 5883 5883 5882 5883 5883 5884 5885 5885 5886 5887
5891 5890 5889 5888 5888 5887 5886 5885 5884 5884 5883 5883 5882 5882 5882 5881 5881 5881 5881 5880 5880 5880 5880 5880 5881 5881 5882 5882 5882 5882 5882 5882 5882 5883 5882 5882 5883 5883 5883 5884 5885 5885 5886
5891 5890 5889 5888 5887 5886 5886 5885 5884 5883 5883 5882 5882 5881 5881 5881 5880 5880 5880 5880 5879 5879 5880 5880 5880 5880 5881 5881 5881 5881 5881 5882 5882 5882 5882 5882 5882 5882 5882 5883 5883 5884 5885
5890 5889 5888 5888 5887 5886 5885 5884 5883 5882 5882 5882 5881 5881 5880 5880 5880 5879 5879 5879 5879 5879 5879 5879 5879 5879 5880 5880 5881 5880 5880 5881 5881 5881 5881 5881 5881 5881 5881 5882 5882 5883 5884
5889 5889 5888 5887 5886 5885 5884 5883 5882 5882 5881 5881 5880 5880 5879 5879 5878 5878 5878 5878 5878 5877 5877 5878 5878 5878 5878 5879 5879 5880 5880 5880 5880 5880 5880 5880 5881 5881 5880 5881 5881 5881 5882
5889 5888 5887 5886 5885 5884 5883 5881 5881 5880 5880 5880 5879 5879 5878 5878 5877 5877 5877 5876 5876 5876 5876 5876 5877 5877 5877 5877 5878 5879 5879 5879 5879 5879 5879 5879 5879 5879 5879 5879 5879 5880 5880
5888 5887 5886 5885 5884 5883 5882 5880 5880 5879 5879 5878 5878 5877 5877 5877 5876 5876 5875 5875 5875 5875 5875 5875 5875 5875 5875 5876 5877 5878 5878 5878 5878 5877 5878 5878 5878 5878 5878 5878 5877 5878 5878
5886 5886 5885 5884 5882 5881 5880 5879 5879 5878 5878 5877 5877 5876 5875 5875 5874 5874 5874 5874 5873 5873 5873 5873 5874 5874 5874 5875 5875 5876 5876 5876 5876 5876 5876 5876 5876 5876 5877 5876 5876 5875 5875
5885 5885 5884 5883 5881 5880 5879 5878 5878 5877 5876 5875 5875 5874 5874 5873 5873 5873 5872 5872 5872 5872 5872 5872 5872 5872 5872 5872 5873 5874 5875 5875 5874 5874 5874 5875 5875 5875 5875 5875 5876 5875 5875
5884 5884 5882 5881 5880 5879 5878 5877 5876 5875 5874 5874 5873 5873 5872 5871 5871 5871 5871 5870 5870 5870 5870 5870 5870 5870 5871 5871 5872 5873 5873 5873 5873 5873 5873 5873 5874 5874 5874 5874 5875 5875 5876
5883 5882 5881 5880 5879 5878 5877 5875 5874 5874 5873 5872 5871 5871 5870 5870 5869 5869 5869 5868 5868 5868 5868 5868 5868 5868 5869 5870 5870 5871 5871 5871 5872 5872 5872 5872 5872 5873 5873 5873 5874 5874 5875
5881 5880 5879 5878 5877 5876 5875 5874 5873 5872 5871 5870 5869 5869 5868 5868 5867 5867 5867 5867 5866 5866 5866 5866 5866 5867 5867 5868 5868 5869 5869 5870 5870 5870 5870 5870 5871 5871 5872 5872 5872 5873 5874
5879 5878 5877 5876 5875 5874 5873 5872 5871 5870 5869 5868 5868 5867 5867 5866 5865 5865 5865 5864 5864 5864 5864 5864 5864 5864 5865 5866 5866 5867 5867 5867 5867 5868 5868 5869 5869 5870 5870 5871 5871 5872 5873
5877 5876 5876 5875 5873 5872 5870 5869 5869 5868 5867 5866 5865 5865 5864 5864 5863 5863 5862 5862 5862 5862 5862 5862 5862 5862 5863 5863 5864 5865 5865 5865 5866 5866 5867 5867 5868 5868 5868 5869 5869 5870 5871
5875 5874 5874 5873 5872 5870 5869 5868 5866 5865 5864 5864 5863 5863 5862 5862 5861 5860 5860 5860 5859 5859 5859 5860 5860 5860 5861 5861 5862 5862 5862 5863 5863 5864 5864 5865 5865 5866 5866 5867 5867 5868 5868
5873 5872 5871 5871 5870 5868 5867 5866 5864 5863 5862 5861 5860 5860 5860 5859 5858 5858 5857 5857 5857 5857 5857 5857 5857 5858 5858 5858 5859 5859 5860 5860 5860 5861 5862 5862 5862 5863 5863 5864 5864 5865 5865
5870 5869 5869 5868 5867 5866 5864 5863 5862 5861 5859 5858 5858 5857 5857 5856 5855 5855 5854 5854 5854 5854 5854 5854 5854 5855 5855 5855 5855 5856 5856 5857 5857 5858 5859 5859 5859 5860 5860 5861 5861 5862 5862
5867 5867 5866 5866 5864 5863 5862 5860 5859 5858 5857 5856 5855 5854 5854 5853 5852 5852 5851 5851 5851 5851 5851 5851 5851 5851 5851 5852 5852 5852 5853 5853 5854 5854 5855 5855 5856 5856 5857 5857 5858 5858 5859
5864 5864 5863 5863 5862 5860 5859 5858 5857 5855 5854 5853 5852 5852 5851 5850 5849 5848 5848 5848 5847 5847 5847 5847 5847 5847 5848 5848 5848 5848 5849 5849 5850 5850 5851 5852 5852 5852 5853 5853 5854 5855 5855
5860 5860 5860 5859 5859 5858 5856 5855 5853 5852 5851 5850 5849 5848 5847 5846 5845 5845 5844 5844 5843 5843 5843 5843 5843 5843 5843 5844 5844 5844 5845 5846 5846 5846 5847 5848 5848 5849 5849 5849 5850 5851 5851
5857 5857 5856 5856 5855 5855 5853 5852 5850 5849 5847 5846 5845 5844 5843 5842 5841 5840 5840 5840 5839 5839 5839 5839 5838 5839 5839 5839 5839 5840 5840 5841 5841 5842 5842 5843 5844 5844 5844 5845 5845 5846 5847
5852 5852 5852 5852 5852 5851 5850 5849 5847 5845 5844 5842 5841 5840 5839 5838 5837 5836 5836 5835 5835 5834 5834 5834 5834 5834 5834 5834 5834 5835 5836 5836 5836 5837 5838 5838 5839 5839 5839 5840 5840 5840 5841
5848 5848 5848 5848 5848 5847 5846 5845 5843 5842 5840 5838 5837 5836 5834 5833 5833 5831 5831 5830 5830 5829 5829 5829 5828 5829 5829 5829 5829 5829 5830 5831 5831 5832 5832 5833 5834 5834 5834 5835 5835 5835 5836
5843 5843 5844 5844 5843 5843 5842 5841 5839 5838 5836 5834 5833 5831 5830 5829 5828 5826 5826 5825 5825 5824 5824 5823 5823 5823 5823 5823 5824 5824 5825 5825 5826 5826 5827 5827 5828 5828 5829 5829 5829 5830 5830